LLBGLLHZ

Guest
Details From LLBG - Tel Aviv Ben Gurion
To LLHZ - Herzelia
Flight Number -
Tags Generated
Created
Modified
Stats Distance 11 nm / 20 km
Max Altitude 0 ft / 0 m
Waypoints 2
Social Downloads 0
Likes 0
Share VATSIM

Download

Looking for another format? Having issues loading an existing format? Contact us
Advertisement - Login to hide

Notes

Generated

Route

LLBG LLHZ

ID Type Via Altitude Latitude Longitude Leg Dist Tot Dist Heading (true) Name
O LLBG APT - 0 ft / 0 m 32.00417˚ 34.89117˚ - 0 nm - -
O LLHZ APT - 0 ft / 0 m 32.17916˚ 34.83923˚ 10 nm 10 nm 346° / 346° -

Altitude Profile

Advertisement - Login to hide

LLBG

Details ICAO LLBG (TLV)
Name Tel Aviv Ben Gurion
Region Israel
Timezone Asia/Jerusalem (UTC+3.0)
Stats Elevation 135 ft / 41 m (AMSL)
Location 32.011468° 34.885059°
Runways 3
Magnetic Variation 4.722° E

METAR

LLBG 222020Z VRB03KT CAVOK 29/13 Q1011 NOSIG

Decode

TAF

TAF LLBG 221703Z 2218/2318 VRB03KT CAVOK BECMG 2219/2221 16005KT TEMPO 2221/2305 26010KT BECMG 2305/2308 28013KT BECMG 2315/2317 VRB04KT TX33/2312Z TN25/2304Z

Decode

Departure Runways

ID Width Length Bearing (true) Bearing (mag) Surface Threshold Offset Overrun Length
03 148 ft / 45 m 5,792 ft / 1,765 m 28.88° 24.16° Asphalt 0 ft / 0 m 216 ft / 66 m
08 148 ft / 45 m 12,017 ft / 3,663 m 79.72° 75.00° Asphalt 0 ft / 0 m 295 ft / 90 m
12 148 ft / 45 m 10,279 ft / 3,133 m 121.54° 116.82° Asphalt 0 ft / 0 m 328 ft / 100 m
21 148 ft / 45 m 5,792 ft / 1,765 m 208.88° 204.16° Asphalt 0 ft / 0 m 216 ft / 66 m
26 148 ft / 45 m 12,017 ft / 3,663 m 259.74° 255.02° Asphalt 1,969 ft / 600 m 205 ft / 62 m
30 148 ft / 45 m 10,279 ft / 3,133 m 301.56° 296.84° Asphalt 246 ft / 75 m 347 ft / 106 m

LLHZ

Details ICAO LLHZ
Name Herzelia
Region Israel
Timezone Asia/Jerusalem (UTC+3.0)
Stats Elevation 121 ft / 37 m (AMSL)
Location 32.180553° 34.834724°
Runways 1
Magnetic Variation 4.741° E

METAR

Not found

TAF

TAF LLHZ 221706Z 2218/2318 VRB03KT CAVOK TEMPO 2221/2301 29010KT BECMG 2301/2304 24008KT BECMG 2308/2311 29014KT TX30/2311Z TN24/2303Z

Decode

Destination Runways

ID Width Length Bearing (true) Bearing (mag) Surface Threshold Offset Overrun Length
11 59 ft / 18 m 2,965 ft / 904 m 110.00° 105.26° Asphalt 229 ft / 70 m 66 ft / 20 m
29 59 ft / 18 m 2,965 ft / 904 m 290.00° 285.26° Asphalt 229 ft / 70 m 66 ft / 20 m

Popular Alternatives